* Astronomy

Members Login
Username 
 
Password 
    Remember Me  
Post Info TOPIC: Asteroid 2011 SC191


L

Posts: 131433
Date:
Asteroid 2011 SC191
Permalink  
 


Orbital elements:
2011 SC191
Epoch 2011 Aug. 27.0 TT = JDT 2455800.5                 MPC
M 161.34112              (2000.0)            P               Q
n   0.53940109     Peri.  190.20291     -0.96463524     +0.26212072
a   1.4946110      Node     5.24571     -0.21533621     -0.72288650
e   0.0458443      Incl.   17.68717     -0.15201700     -0.63931826
P   1.83           H   19.4           G   0.15           U   8

MPEC 2011 - T02



__________________
Page 1 of 1  sorted by
Quick Reply

Please log in to post quick replies.



Create your own FREE Forum
Report Abuse
Powered by ActiveBoard